loading
|

OBJECT A, 51824

Orbit data source: Space-Track

OBJECT A, 51824 is a satellite owned by Weina (CN) in SSO that was launched on Sun, 27 Feb 2022 UTC via a CHANG ZHENG 8 launch vehicle from the Wenchang Satellite Launch Center (WSC). Unknown objects in Earth's orbit typically refer to objects detected orbiting the Earth but have not yet been identified or cataloged. These objects could be anything from previously untracked satellites, spent rocket stages, debris from satellite collisions, or even natural meteoroids temporarily captured by Earth's gravity.

Loading next visibility...
Loading greatness...
OBJECT A details
Identifier
51824, 2022-019A
Orbit
SSO
Last TLE update9 hours ago
Origin
Flag of CNWeina (CN / PRC)
ManufacturerWeina
Mission statusOperational
MissionCommercial Radar Imaging
Bus & MotorMN200, Unknown motor
Mass350 kg wet, 350 kg dry
Launch date (UTC)
2022-02-27 (3 years ago)
Launch vehicle
CHANG ZHENG 8
Launch site
Wenchang Satellite Launch Center (WSC)
Object typeUnknown
Radar Cross SectionLarge (>1 m²)

Expand to show TLE details & history

TLE from 9 hours ago
0 OBJECT A
1 51824U 22019A   24261.57816581  .00075347  00000-0  26572-2 0  9990
2 51824  97.4237 333.3272 0013537 269.4030  90.5658 15.28881959141386
Epoch: 2024-09-17T13:52Z
Definitive object data (Epoch: 2024-09-17T13:52:33.525Z)
Latitude-0.00013°
Longitude128.19672°
Altitude482.359 km
Speed7.624 km/s
True Right ascension22h 13m 18s
True Declination0° 00' 00"
Sunlit
Object was in full shadow at TLE epoch
Predictive object data (real-time)
Latitude-80.34113°
Longitude-101.01361°
Altitude497.867 km
Speed7.62 km/s
Apparent Right ascension04h 16m 41s
Apparent Declination-62° 06' 56"
Sunlit
Object is in daylight
Predictive observer data (real-time)
Local Sidereal Time15:41:48
Azimuth190.538° SSW
Elevation-67.18°
Doppler factor1
Orbital elements
Apogee485.387 km
Perigee466.829 km
Semi-major axis6,854.245 km
Eccentricity0.0013537
Inclination97.4237°
RAAN333.3272°
Arg. of periapsis269.403°
True anomaly90.72091°
Mean anomaly90.5658°
Eccentric anomaly90.64336°
Mean motion3.82476 °/min
BSTAR0.0026572
Period94.12 mins
No data available

OBJECT A Visibility forecast

Observer location: 39.9160978°, -105.1181434

OBJECT A is not visible in the next 10 days
Span
Click to sort rows by Start time (UTC) header in descending order
Start Az.
Max El. time (UTC)
Max El. Az.
Max El.
End time (UTC)
End Az.